SCP
-0 0 0 0 0 0 0 0 0 -0 -0 0 2 1 1 1 1 0 0 0 0 0 0 0 -0 -0 0 0 0 0 -0 0 0 0 0 0 0 -0 -0 -0 -0 -0 -0
0 0 0 0 0 0 0 0 0 0 1 1 1 2 2 1 1 1 0 0 0 0 -0 0 0 0 -0 0 0 0 1 0 1 0 0 1 1 1 0 0 0 -0 -0
0 0 -0 0 0 0 -0 1 -0 0 1 1 1 1 2 1 1 1 0 0 0 0 0 -0 -0 0 0 0 0 0 1 1 1 0 0 0 1 1 1 1 0 0 0
0 1 1 1 1 0 0 0 0 1 1 1 1 1 2 1 1 1 1 1 1 1 1 0 0 0 0 0 0 1 1 1 2 1 0 0 0 1 1 1 0 0 0
1 1 2 2 2 2 2 2 2 2 2 2 2 2 2 2 2 1 1 1 1 1 1 1 0 1 0 1 1 1 2 1 0 1 1 1 -0 1 1 1 1 0 0
2 3 3 2 2 1 1 1 2 2 2 2 1 1 1 2 1 1 1 0 0 1 1 0 0 1 1 0 0 0 0 0 0 2 1 0 0 0 1 1 1 1 0
2 3 3 2 2 2 1 1 1 1 1 1 1 1 1 1 1 0 0 1 1 0 0 0 1 0 1 1 0 0 0 0 0 1 1 1 1 0 1 1 1 1 0
2 2 2 2 2 2 2 2 1 1 1 1 1 1 1 1 1 0 0 0 1 1 1 1 1 1 0 1 1 1 0 0 0 1 1 1 2 1 1 2 2 2 2
1 1 1 1 1 1 1 1 1 1 1 1 1 1 1 1 1 0 0 1 1 1 1 1 1 1 1 1 1 1 1 1 0 1 1 1 1 1 2 3 2 2 1
0 0 0 0 0 0 0 0 0 0 0 1 1 1 1 1 1 1 0 1 0 0 0 0 0 0 0 0 0 1 0 0 1 1 1 1 1 1 1 2 2 2 1
0 0 0 0 0 0 0 0 0 0 0 0 0 0 1 1 1 1 0 1 1 1 1 1 1 0 0 0 0 1 1 1 0 1 0 1 2 2 2 1 2 2 2
0 0 0 0 0 0 0 0 0 0 0 0 0 0 0 0 1 1 0 0 1 1 1 1 0 0 0 0 0 0 0 0 0 1 1 1 1 1 1 1 2 2 2
0 0 0 0 0 0 0 0 0 0 0 0 0 0 0 0 0 0 0 0 0 0 0 0 0 0 0 0 0 0 0 0 0 0 1 0 1 1 1 1 1 1 1
0 0 0 0 0 0 0 0 0 0 0 0 0 0 0 0 0 0 0 0 0 0 0 0 0 0 0 0 0 0 0 0 1 0 0 0 1 1 1 2 2 2 2
0 0 0 0 0 0 0 0 0 0 0 0 0 0 0 0 0 0 0 0 0 0 0 0 0 0 0 0 0 0 1 1 1 1 1 1 1 1 1 1 1 2 1
0 0 0 0 0 0 0 0 0 0 0 0 0 0 0 0 0 0 0 0 0 0 0 0 0 0 0 0 0 1 1 1 0 0 0 0 1 0 1 0 1 1 1
0 0 0 0 0 0 0 0 0 0 -0 -0 0 0 0 0 0 0 0 0 0 0 0 0 0 0 0 0 0 0 1 1 1 0 0 0 0 0 0 1 0 1 1
0 0 0 0 0 0 0 0 -0 0 0 0 0 -0 -0 -0 0 0 0 0 0 0 0 0 0 0 0 0 0 0 0 0 1 1 1 1 1 1 1 0 0 1 1
0 0 0 0 0 0 0 0 0 0 0 0 0 0 -0 -0 0 -0 0 0 0 0 0 0 0 0 -0 0 0 0 0 0 -0 0 0 0 1 0 1 1 2 1 1
0 0 0 0 0 0 0 0 0 0 0 0 0 0 0 0 0 0 0 0 0 0 0 0 0 0 0 0 0 0 0 0 0 -0 0 0 0 0 0 0 1 1 0
0 0 0 0 0 0 0 0 0 0 0 0 0 0 0 0 0 0 0 0 0 0 0 0 0 0 0 0 0 0 0 0 0 0 0 0 0 -0 0 0 0 0 0
0 0 0 0 0 0 0 0 0 0 0 0 0 0 0 0 0 0 0 0 0 0 0 0 0 0 0 0 0 0 0 0 0 0 0 0 0 0 0 -0 -0 -0 0
0 0 0 0 0 0 0 0 0 0 0 0 0 0 0 0 0 0 0 0 0 0 0 0 0 0 0 0 0 0 0 0 0 0 0 0 0 0 0 0 0 0 -0
0 0 0 0 0 0 0 0 0 0 0 0 0 0 0 0 0 0 0 0 0 0 0 0 0 0 0 0 0 0 0 0 0 0 0 0 0 0 0 0 0 0 0
0 0 0 0 0 0 0 0 0 0 0 0 0 0 0 0 0 0 0 0 0 0 0 0 0 0 0 0 0 0 0 0 0 0 0 0 0 0 0 0 0 0 0
0 0 0 0 0 0 0 0 0 0 0 0 0 0 0 0 0 0 0 0 0 0 0 0 0 0 0 0 0 -0 0 0 -0 0 0 0 0 0 0 0 0 0 0
Wind_Speed_500mb
43 45 44 45 51 54 55 53 55 53 52 57 39 52 49 36 32 30 32 35 33 43 46 45 48 48 52 40 38 38 56 41 33 40 28 38 49 45 41 41 34 35 36
41 44 50 48 48 46 44 40 39 44 42 39 50 49 54 46 40 39 36 37 41 41 55 53 46 49 53 54 51 45 45 51 49 43 29 33 50 46 42 43 39 40 37
30 34 34 37 44 43 51 38 40 40 46 45 38 53 56 52 46 49 44 43 44 44 41 55 59 52 55 54 59 57 47 49 54 47 46 33 37 38 43 45 45 41 43
17 25 29 34 33 35 35 33 37 46 45 43 44 41 49 51 50 54 58 53 51 51 49 44 52 60 60 61 61 57 56 49 44 48 59 53 45 43 48 48 47 48 55
15 9 13 23 22 30 35 34 26 29 35 38 43 45 49 53 55 58 60 53 48 53 58 57 55 56 59 67 70 63 61 64 70 52 58 56 49 50 57 53 43 33 35
9 13 15 17 19 25 32 32 34 39 42 35 38 42 47 53 57 58 52 39 43 62 49 43 72 72 73 69 71 77 75 63 64 67 72 69 62 61 52 62 53 46 49
10 8 6 5 4 7 19 26 27 32 34 38 40 43 49 49 54 59 57 54 63 66 65 68 64 67 69 66 64 64 73 70 68 67 68 73 69 70 69 64 66 56 55
7 3 2 3 5 9 13 15 19 22 22 25 32 39 46 51 52 55 54 52 61 70 73 73 75 75 70 66 68 68 65 68 82 84 81 80 83 75 77 65 62 58 54
4 9 12 15 17 17 16 18 17 20 24 26 27 31 36 41 42 47 50 55 56 58 64 67 68 72 72 69 72 75 81 82 76 84 95 92 84 80 77 68 64 66 70
13 18 22 24 26 26 26 28 31 29 29 25 37 32 37 42 42 41 44 50 53 53 56 59 58 63 65 65 74 83 88 91 88 85 85 93 99 96 89 87 86 78 78
21 21 22 25 23 19 27 32 35 36 35 37 41 42 43 42 43 43 38 38 47 48 42 36 36 46 55 61 67 78 86 86 93 92 88 86 85 89 103 97 92 87 91
19 16 18 18 17 14 24 23 22 22 29 27 31 35 34 34 42 43 47 45 32 32 40 43 45 52 58 62 68 58 68 75 83 98 100 92 89 77 83 91 99 98 98
12 14 15 18 21 30 27 25 27 24 24 25 27 27 24 18 33 29 33 43 45 45 49 55 57 60 63 69 83 74 68 72 63 87 102 112 84 68 64 73 75 78 77
13 14 16 19 13 18 20 17 17 18 22 31 37 37 38 39 30 36 24 21 26 33 42 43 45 49 49 57 61 75 76 73 65 72 82 110 70 68 73 73 75 71 68
8 14 13 8 15 16 14 18 19 19 25 35 38 37 38 38 37 42 49 53 57 58 62 60 62 64 58 59 60 59 60 63 74 64 68 79 83 80 71 60 55 62 64
12 10 17 15 14 14 17 13 16 17 27 30 37 40 38 30 35 38 38 36 34 37 45 56 69 74 67 64 62 60 66 72 64 77 76 77 88 91 72 57 57 60 64
15 22 14 21 27 26 26 22 18 18 21 22 33 38 36 39 42 38 38 39 37 31 38 43 38 43 47 52 52 60 65 68 77 72 80 82 84 88 84 72 67 80 82
9 11 15 16 21 25 19 16 12 22 28 32 27 34 33 33 43 43 41 43 43 34 39 35 33 34 37 45 50 51 55 59 57 63 66 76 92 94 94 86 80 88 83
11 16 12 14 14 17 17 24 21 17 30 31 30 32 40 44 31 37 32 31 32 36 37 40 40 42 43 48 46 45 50 60 61 55 56 59 80 83 80 73 67 71 58
5 24 21 16 16 22 18 17 18 21 25 26 32 42 52 31 32 37 33 32 31 31 34 37 35 38 35 41 46 48 48 47 44 48 47 39 63 30 44 43 49 45 42
8 12 16 13 21 22 21 23 25 24 31 29 27 38 38 36 35 32 33 35 37 36 37 38 38 39 38 37 33 35 41 47 48 49 43 42 49 60 55 36 44 38 51
7 11 15 19 18 25 24 23 24 26 30 30 30 36 40 36 36 39 42 43 44 47 45 45 38 34 33 36 36 37 44 47 47 44 39 39 35 37 33 42 52 73 89
13 13 15 17 21 19 24 25 26 28 30 30 30 32 34 36 34 37 38 41 40 41 45 45 42 45 42 39 42 47 51 56 57 52 53 48 45 36 30 31 37 46 49
6 9 11 13 19 22 26 28 30 32 33 33 32 33 32 34 34 34 35 37 42 44 48 51 56 59 53 45 40 43 44 48 50 58 58 55 50 47 44 43 37 38 40
5 7 10 13 13 19 25 27 31 32 34 35 36 35 34 34 34 34 35 37 41 40 41 40 43 50 59 57 53 56 57 51 51 53 57 59 59 55 47 47 49 50 42
5 7 9 13 17 19 25 25 31 35 35 37 37 37 36 33 36 36 34 38 40 38 37 40 38 40 42 50 63 59 57 48 45 42 40 43 45 46 43 41 39 40 45
Wind_Direction_500mb
229 226 241 243 240 245 251 258 259 260 257 248 242 250 257 254 261 258 262 258 247 244 232 234 235 231 219 228 240 244 233 238 246 261 254 221 220 217 219 220 228 234 233
225 232 228 235 240 243 257 263 268 270 271 261 235 246 255 253 248 255 254 255 257 239 239 239 241 239 232 223 221 233 240 231 241 246 290 243 206 212 214 225 240 227 242
227 231 244 235 248 247 231 246 259 260 263 266 257 234 249 253 244 251 255 252 255 258 254 242 241 241 239 238 232 233 237 243 246 242 232 236 240 224 231 236 233 224 241
200 222 237 226 240 240 253 253 249 248 253 253 258 254 247 250 246 247 253 253 250 255 260 257 249 246 248 248 246 243 242 239 242 237 239 235 254 247 235 232 234 240 229
167 188 215 213 204 217 232 234 233 238 249 257 252 251 251 250 249 246 246 252 256 255 260 263 261 260 257 256 251 254 253 255 239 235 237 231 246 248 233 234 239 249 245
193 197 212 220 237 256 251 250 249 250 249 252 258 257 254 255 255 253 257 234 261 261 260 272 260 258 260 261 261 258 260 252 240 234 239 235 241 244 247 232 234 232 237
132 176 181 191 211 279 262 255 259 254 255 255 257 258 262 263 261 263 263 254 257 256 250 250 259 257 263 264 268 270 260 249 241 239 236 236 228 233 238 243 237 238 236
169 203 274 275 272 271 283 303 306 290 279 263 266 264 265 266 268 268 266 262 253 253 251 253 256 256 256 257 267 271 269 257 243 238 238 237 237 235 234 232 237 237 235
25 336 325 313 303 297 283 270 261 274 289 286 273 276 276 279 274 272 272 274 269 257 252 254 259 261 261 267 263 262 268 268 261 251 244 246 242 240 235 232 231 230 238
333 316 306 301 298 297 294 290 285 275 270 287 288 268 269 273 279 278 281 277 276 274 268 265 263 264 268 270 268 264 263 262 261 255 252 247 246 247 241 240 238 234 240
317 312 309 308 310 322 299 295 292 291 286 278 273 278 283 279 279 282 288 293 287 274 265 274 282 287 288 287 288 281 267 268 264 259 253 252 246 248 248 244 240 242 241
321 333 324 329 335 324 327 336 342 358 347 344 334 324 321 317 305 306 280 283 292 290 276 275 273 271 270 274 272 280 270 284 275 255 253 244 242 240 248 248 245 239 242
358 336 342 342 359 342 349 5 355 341 335 325 318 307 303 315 344 307 264 264 270 262 271 268 273 274 274 275 267 270 277 282 277 256 256 247 232 235 243 246 247 248 245
353 354 351 353 343 337 346 344 329 330 322 325 317 308 294 277 306 308 295 279 276 276 275 279 288 288 288 289 285 272 267 272 279 277 251 243 235 241 237 236 241 240 238
10 21 344 339 337 348 342 339 330 319 340 354 354 346 327 316 309 303 299 297 294 295 292 290 285 289 290 289 288 286 284 275 260 260 239 228 234 237 238 230 236 241 236
49 354 342 359 1 352 350 328 347 350 1 353 360 0 3 355 352 343 337 328 321 310 302 292 284 284 287 288 283 282 284 283 276 253 250 247 248 240 233 230 238 238 238
46 10 22 347 10 350 359 360 17 360 353 4 10 5 3 4 358 355 350 346 347 333 330 318 310 299 294 296 296 284 285 285 284 276 255 249 241 239 234 246 239 239 242
35 9 32 343 11 13 2 16 21 349 354 356 338 358 11 358 357 349 345 342 348 343 341 351 341 321 307 306 303 298 298 291 287 277 276 264 254 251 244 250 241 237 244
68 19 41 19 24 16 31 28 15 355 2 11 345 338 340 336 342 335 335 339 341 335 332 339 342 340 327 323 321 314 303 292 299 290 276 299 262 256 247 235 233 233 239
16 21 58 39 39 33 29 23 10 4 8 9 0 354 344 12 357 353 344 347 341 326 323 313 310 307 324 331 330 324 323 323 312 312 306 305 260 263 275 227 219 228 240
57 30 43 45 21 31 26 26 21 20 8 18 9 348 6 9 7 5 6 357 346 338 326 319 320 322 321 307 317 326 327 325 319 323 317 305 296 292 295 267 281 244 253
57 41 35 33 27 27 24 17 12 7 5 5 3 357 5 4 3 358 358 358 358 356 357 356 339 317 308 323 316 310 313 310 306 307 314 313 308 306 295 286 290 286 286
51 43 31 24 23 10 15 9 3 3 0 357 356 354 356 0 359 357 356 350 351 348 355 359 4 1 349 336 320 312 310 304 302 303 302 301 304 297 294 293 292 282 263
37 25 28 30 19 12 4 1 356 352 350 347 346 345 346 349 349 349 349 351 350 351 346 349 350 355 356 356 344 350 331 309 303 298 298 299 298 296 298 285 285 280 285
52 36 22 12 2 4 354 350 349 342 341 342 339 337 337 337 339 340 341 343 349 353 352 352 349 347 341 344 347 346 337 318 321 304 290 292 294 297 298 290 278 278 285
75 37 12 358 349 356 350 347 348 347 342 336 332 331 327 329 332 332 332 335 341 343 346 348 343 340 339 327 334 335 338 336 330 330 317 294 288 292 297 299 291 282 276
Wind_Speed_850mb
43 45 44 45 51 54 55 53 55 53 52 57 39 52 49 36 32 30 32 35 33 43 46 45 48 48 52 40 38 38 56 41 33 40 28 38 49 45 41 41 34 35 36
41 44 50 48 48 46 44 40 39 44 42 39 50 49 54 46 40 39 36 37 41 41 55 53 46 49 53 54 51 45 45 51 49 43 29 33 50 46 42 43 39 40 37
30 34 34 37 44 43 51 38 40 40 46 45 38 53 56 52 46 49 44 43 44 44 41 55 59 52 55 54 59 57 47 49 54 47 46 33 37 38 43 45 45 41 43
17 25 29 34 33 35 35 33 37 46 45 43 44 41 49 51 50 54 58 53 51 51 49 44 52 60 60 61 61 57 56 49 44 48 59 53 45 43 48 48 47 48 55
15 9 13 23 22 30 35 34 26 29 35 38 43 45 49 53 55 58 60 53 48 53 58 57 55 56 59 67 70 63 61 64 70 52 58 56 49 50 57 53 43 33 35
9 13 15 17 19 25 32 32 34 39 42 35 38 42 47 53 57 58 52 39 43 62 49 43 72 72 73 69 71 77 75 63 64 67 72 69 62 61 52 62 53 46 49
10 8 6 5 4 7 19 26 27 32 34 38 40 43 49 49 54 59 57 54 63 66 65 68 64 67 69 66 64 64 73 70 68 67 68 73 69 70 69 64 66 56 55
7 3 2 3 5 9 13 15 19 22 22 25 32 39 46 51 52 55 54 52 61 70 73 73 75 75 70 66 68 68 65 68 82 84 81 80 83 75 77 65 62 58 54
4 9 12 15 17 17 16 18 17 20 24 26 27 31 36 41 42 47 50 55 56 58 64 67 68 72 72 69 72 75 81 82 76 84 95 92 84 80 77 68 64 66 70
13 18 22 24 26 26 26 28 31 29 29 25 37 32 37 42 42 41 44 50 53 53 56 59 58 63 65 65 74 83 88 91 88 85 85 93 99 96 89 87 86 78 78
21 21 22 25 23 19 27 32 35 36 35 37 41 42 43 42 43 43 38 38 47 48 42 36 36 46 55 61 67 78 86 86 93 92 88 86 85 89 103 97 92 87 91
19 16 18 18 17 14 24 23 22 22 29 27 31 35 34 34 42 43 47 45 32 32 40 43 45 52 58 62 68 58 68 75 83 98 100 92 89 77 83 91 99 98 98
12 14 15 18 21 30 27 25 27 24 24 25 27 27 24 18 33 29 33 43 45 45 49 55 57 60 63 69 83 74 68 72 63 87 102 112 84 68 64 73 75 78 77
13 14 16 19 13 18 20 17 17 18 22 31 37 37 38 39 30 36 24 21 26 33 42 43 45 49 49 57 61 75 76 73 65 72 82 110 70 68 73 73 75 71 68
8 14 13 8 15 16 14 18 19 19 25 35 38 37 38 38 37 42 49 53 57 58 62 60 62 64 58 59 60 59 60 63 74 64 68 79 83 80 71 60 55 62 64
12 10 17 15 14 14 17 13 16 17 27 30 37 40 38 30 35 38 38 36 34 37 45 56 69 74 67 64 62 60 66 72 64 77 76 77 88 91 72 57 57 60 64
15 22 14 21 27 26 26 22 18 18 21 22 33 38 36 39 42 38 38 39 37 31 38 43 38 43 47 52 52 60 65 68 77 72 80 82 84 88 84 72 67 80 82
9 11 15 16 21 25 19 16 12 22 28 32 27 34 33 33 43 43 41 43 43 34 39 35 33 34 37 45 50 51 55 59 57 63 66 76 92 94 94 86 80 88 83
11 16 12 14 14 17 17 24 21 17 30 31 30 32 40 44 31 37 32 31 32 36 37 40 40 42 43 48 46 45 50 60 61 55 56 59 80 83 80 73 67 71 58
5 24 21 16 16 22 18 17 18 21 25 26 32 42 52 31 32 37 33 32 31 31 34 37 35 38 35 41 46 48 48 47 44 48 47 39 63 30 44 43 49 45 42
8 12 16 13 21 22 21 23 25 24 31 29 27 38 38 36 35 32 33 35 37 36 37 38 38 39 38 37 33 35 41 47 48 49 43 42 49 60 55 36 44 38 51
7 11 15 19 18 25 24 23 24 26 30 30 30 36 40 36 36 39 42 43 44 47 45 45 38 34 33 36 36 37 44 47 47 44 39 39 35 37 33 42 52 73 89
13 13 15 17 21 19 24 25 26 28 30 30 30 32 34 36 34 37 38 41 40 41 45 45 42 45 42 39 42 47 51 56 57 52 53 48 45 36 30 31 37 46 49
6 9 11 13 19 22 26 28 30 32 33 33 32 33 32 34 34 34 35 37 42 44 48 51 56 59 53 45 40 43 44 48 50 58 58 55 50 47 44 43 37 38 40
5 7 10 13 13 19 25 27 31 32 34 35 36 35 34 34 34 34 35 37 41 40 41 40 43 50 59 57 53 56 57 51 51 53 57 59 59 55 47 47 49 50 42
5 7 9 13 17 19 25 25 31 35 35 37 37 37 36 33 36 36 34 38 40 38 37 40 38 40 42 50 63 59 57 48 45 42 40 43 45 46 43 41 39 40 45
Wind_Direction_850mb
229 226 241 243 240 245 251 258 259 260 257 248 242 250 257 254 261 258 262 258 247 244 232 234 235 231 219 228 240 244 233 238 246 261 254 221 220 217 219 220 228 234 233
225 232 228 235 240 243 257 263 268 270 271 261 235 246 255 253 248 255 254 255 257 239 239 239 241 239 232 223 221 233 240 231 241 246 290 243 206 212 214 225 240 227 242
227 231 244 235 248 247 231 246 259 260 263 266 257 234 249 253 244 251 255 252 255 258 254 242 241 241 239 238 232 233 237 243 246 242 232 236 240 224 231 236 233 224 241
200 222 237 226 240 240 253 253 249 248 253 253 258 254 247 250 246 247 253 253 250 255 260 257 249 246 248 248 246 243 242 239 242 237 239 235 254 247 235 232 234 240 229
167 188 215 213 204 217 232 234 233 238 249 257 252 251 251 250 249 246 246 252 256 255 260 263 261 260 257 256 251 254 253 255 239 235 237 231 246 248 233 234 239 249 245
193 197 212 220 237 256 251 250 249 250 249 252 258 257 254 255 255 253 257 234 261 261 260 272 260 258 260 261 261 258 260 252 240 234 239 235 241 244 247 232 234 232 237
132 176 181 191 211 279 262 255 259 254 255 255 257 258 262 263 261 263 263 254 257 256 250 250 259 257 263 264 268 270 260 249 241 239 236 236 228 233 238 243 237 238 236
169 203 274 275 272 271 283 303 306 290 279 263 266 264 265 266 268 268 266 262 253 253 251 253 256 256 256 257 267 271 269 257 243 238 238 237 237 235 234 232 237 237 235
25 336 325 313 303 297 283 270 261 274 289 286 273 276 276 279 274 272 272 274 269 257 252 254 259 261 261 267 263 262 268 268 261 251 244 246 242 240 235 232 231 230 238
333 316 306 301 298 297 294 290 285 275 270 287 288 268 269 273 279 278 281 277 276 274 268 265 263 264 268 270 268 264 263 262 261 255 252 247 246 247 241 240 238 234 240
317 312 309 308 310 322 299 295 292 291 286 278 273 278 283 279 279 282 288 293 287 274 265 274 282 287 288 287 288 281 267 268 264 259 253 252 246 248 248 244 240 242 241
321 333 324 329 335 324 327 336 342 358 347 344 334 324 321 317 305 306 280 283 292 290 276 275 273 271 270 274 272 280 270 284 275 255 253 244 242 240 248 248 245 239 242
358 336 342 342 359 342 349 5 355 341 335 325 318 307 303 315 344 307 264 264 270 262 271 268 273 274 274 275 267 270 277 282 277 256 256 247 232 235 243 246 247 248 245
353 354 351 353 343 337 346 344 329 330 322 325 317 308 294 277 306 308 295 279 276 276 275 279 288 288 288 289 285 272 267 272 279 277 251 243 235 241 237 236 241 240 238
10 21 344 339 337 348 342 339 330 319 340 354 354 346 327 316 309 303 299 297 294 295 292 290 285 289 290 289 288 286 284 275 260 260 239 228 234 237 238 230 236 241 236
49 354 342 359 1 352 350 328 347 350 1 353 360 0 3 355 352 343 337 328 321 310 302 292 284 284 287 288 283 282 284 283 276 253 250 247 248 240 233 230 238 238 238
46 10 22 347 10 350 359 360 17 360 353 4 10 5 3 4 358 355 350 346 347 333 330 318 310 299 294 296 296 284 285 285 284 276 255 249 241 239 234 246 239 239 242
35 9 32 343 11 13 2 16 21 349 354 356 338 358 11 358 357 349 345 342 348 343 341 351 341 321 307 306 303 298 298 291 287 277 276 264 254 251 244 250 241 237 244
68 19 41 19 24 16 31 28 15 355 2 11 345 338 340 336 342 335 335 339 341 335 332 339 342 340 327 323 321 314 303 292 299 290 276 299 262 256 247 235 233 233 239
16 21 58 39 39 33 29 23 10 4 8 9 0 354 344 12 357 353 344 347 341 326 323 313 310 307 324 331 330 324 323 323 312 312 306 305 260 263 275 227 219 228 240
57 30 43 45 21 31 26 26 21 20 8 18 9 348 6 9 7 5 6 357 346 338 326 319 320 322 321 307 317 326 327 325 319 323 317 305 296 292 295 267 281 244 253
57 41 35 33 27 27 24 17 12 7 5 5 3 357 5 4 3 358 358 358 358 356 357 356 339 317 308 323 316 310 313 310 306 307 314 313 308 306 295 286 290 286 286
51 43 31 24 23 10 15 9 3 3 0 357 356 354 356 0 359 357 356 350 351 348 355 359 4 1 349 336 320 312 310 304 302 303 302 301 304 297 294 293 292 282 263
37 25 28 30 19 12 4 1 356 352 350 347 346 345 346 349 349 349 349 351 350 351 346 349 350 355 356 356 344 350 331 309 303 298 298 299 298 296 298 285 285 280 285
52 36 22 12 2 4 354 350 349 342 341 342 339 337 337 337 339 340 341 343 349 353 352 352 349 347 341 344 347 346 337 318 321 304 290 292 294 297 298 290 278 278 285
75 37 12 358 349 356 350 347 348 347 342 336 332 331 327 329 332 332 332 335 341 343 346 348 343 340 339 327 334 335 338 336 330 330 317 294 288 292 297 299 291 282 276